Vorticity
10 11 13 13 13 9 8 8 4 6 3 9 13 17 19 14 20 11 10 14 10 2 8 6 7 5 5 6 5 5 6 6 6 15 16 10 9 5 8 10 10 8 13
7 16 12 12 10 8 10 8 6 11 8 7 5 26 19 23 17 14 9 11 8 11 14 9 8 6 4 5 4 5 6 6 5 6 9 8 10 11 9 12 8 8 8
15 14 16 10 9 8 9 8 7 8 6 7 10 10 25 14 10 6 7 24 26 21 -2 20 4 6 5 3 5 4 5 6 9 8 8 8 10 10 6 15 7 9 6
9 13 16 13 9 9 8 10 10 7 8 7 9 5 5 10 18 20 9 -2 26 -2 12 -6 15 5 5 3 6 5 4 7 7 4 8 6 7 7 9 5 12 4 6
18 9 15 12 16 11 10 8 9 11 8 7 7 5 4 3 11 17 18 19 23 9 41 36 3 7 7 2 5 4 5 7 8 5 6 7 8 7 7 2 8 5 4
14 3 11 11 10 9 11 10 8 9 8 7 5 4 6 4 4 5 17 9 4 39 40 9 8 11 -3 6 -0 5 13 6 7 9 5 8 8 6 5 7 2 6 12
8 10 9 5 12 11 11 7 7 6 6 6 6 6 9 6 3 6 5 6 16 15 26 29 16 -3 5 15 20 9 13 12 13 12 9 11 9 8 4 4 4 6 -1
9 7 10 7 4 2 9 13 12 9 5 6 5 3 8 10 6 8 5 5 4 4 9 17 16 21 18 7 5 16 12 5 5 10 7 7 11 3 8 8 3 9 7
10 6 7 8 7 5 4 5 6 10 7 4 3 -0 12 14 18 8 10 7 4 4 4 3 1 3 5 6 14 33 7 2 7 6 5 8 4 23 7 5 8 8 8
-2 1 0 6 7 9 9 7 6 5 7 3 4 6 9 6 22 11 11 7 10 12 5 5 6 6 6 5 7 8 7 8 7 7 7 6 7 7 7 6 6 6 6
9 -3 7 5 6 8 14 10 -1 -1 18 10 6 3 6 7 8 4 5 3 6 8 6 11 13 10 7 6 6 5 5 6 6 6 7 6 6 7 6 5 5 4 4
17 10 3 6 3 9 11 8 4 9 34 42 7 15 9 12 8 14 8 7 7 9 10 8 13 17 14 10 10 11 7 6 8 8 8 8 6 6 6 5 5 5 6
-30 22 1 -0 -3 -3 14 69 12 10 45 27 -4 20 -6 15 8 2 2 7 11 10 9 6 5 8 8 4 13 17 10 11 7 7 6 7 7 7 6 6 8 9 6
-44 45 1 -3 9 -4 2 -5 3 17 -4 77 39 1 18 9 8 1 19 9 8 4 7 8 11 9 8 15 9 25 18 11 12 8 11 5 7 4 6 9 6 15 13
43 115 18 4 2 5 1 2 12 -3 11 12 53 22 19 20 14 17 18 8 9 8 7 7 5 6 5 8 26 11 26 20 17 13 11 16 6 18 25 27 3 -3 1
46 71 20 8 8 7 1 10 5 2 12 1 8 42 15 53 11 -7 12 7 5 6 7 7 6 9 11 11 11 15 27 1 9 18 8 9 13 -1 -19 26 4 -1 35
3 22 -2 4 7 12 12 9 3 2 11 8 9 13 11 6 31 29 22 -6 4 7 4 4 4 8 10 12 7 8 5 31 6 1 13 9 0 -3 5 20 19 38 9
46 10 5 6 11 4 3 5 8 10 9 13 21 28 15 -3 7 14 -6 5 6 3 3 4 6 6 8 9 9 14 7 10 10 17 22 20 18 21 20 16 18 10 7
2 3 7 11 9 4 7 15 10 5 7 10 17 -2 13 52 12 11 2 5 6 5 6 7 8 9 8 10 8 9 10 11 11 12 13 11 9 7 5 7 8 9 9
19 14 12 14 16 14 11 10 11 17 23 16 -3 28 58 42 55 10 5 -1 6 8 8 7 7 8 11 10 10 11 10 10 10 9 5 7 8 9 9 9 8 8 7
9 5 6 11 15 13 16 14 14 17 3 23 19 17 21 79 6 -9 20 9 4 3 5 14 7 7 10 16 10 9 12 10 8 9 11 10 9 7 8 7 7 6 8
15 14 13 8 10 13 10 9 10 8 14 11 6 31 19 19 18 -2 38 6 3 -0 9 -1 11 14 23 -10 1 12 10 11 10 9 6 6 8 9 7 10 9 8 9
7 5 5 6 6 8 9 8 7 7 8 7 12 4 3 36 12 30 11 24 28 -5 -18 -7 -6 18 15 9 15 11 12 10 7 9 10 10 11 10 10 10 10 12 14
6 7 7 7 8 9 11 12 16 14 10 11 12 14 12 6 12 23 34 30 25 24 27 21 6 14 16 35 16 -1 -1 4 8 10 10 11 11 13 12 12 13 13 10
8 6 6 6 6 6 4 7 5 7 7 10 12 8 11 9 5 12 9 22 16 -14 -2 2 3 7 12 14 7 9 16 10 10 11 9 9 11 10 12 10 9 11 11
6 5 6 7 8 8 8 8 8 7 6 13 12 10 9 12 11 12 10 -5 3 11 9 9 10 -1 11 -2 -10 11 6 5 13 13 4 6 14 14 14 16 15 10 9
Height
5866 5865 5865 5866 5867 5868 5868 5867 5867 5868 5867 5868 5866 5865 5865 5866 5866 5867 5868 5870 5872 5875 5878 5881 5885 5888 5890 5892 5894 5896 5898 5899 5901 5902 5904 5906 5907 5908 5910 5911 5913 5914 5915
5864 5863 5862 5862 5863 5864 5865 5865 5866 5866 5865 5865 5863 5862 5861 5862 5862 5863 5864 5865 5867 5869 5871 5875 5878 5882 5885 5888 5890 5893 5895 5896 5897 5899 5901 5902 5904 5905 5907 5908 5909 5911 5913
5862 5861 5860 5859 5860 5861 5862 5863 5863 5864 5863 5862 5861 5860 5859 5859 5859 5858 5859 5860 5860 5862 5864 5869 5873 5876 5881 5884 5886 5888 5891 5893 5894 5896 5897 5899 5901 5902 5903 5904 5906 5907 5909
5859 5859 5858 5857 5857 5858 5858 5859 5860 5860 5859 5858 5858 5857 5856 5855 5855 5854 5855 5855 5855 5855 5858 5861 5864 5869 5874 5878 5881 5884 5886 5888 5891 5893 5894 5896 5897 5898 5900 5901 5902 5904 5905
5857 5856 5855 5854 5854 5855 5855 5856 5856 5857 5856 5856 5856 5855 5855 5854 5853 5851 5852 5851 5852 5852 5853 5855 5859 5864 5869 5873 5875 5878 5880 5883 5886 5888 5890 5892 5894 5896 5897 5898 5899 5900 5901
5853 5852 5851 5851 5851 5851 5851 5852 5852 5854 5854 5854 5854 5854 5853 5852 5852 5851 5850 5850 5850 5850 5853 5856 5859 5861 5864 5869 5873 5874 5876 5878 5880 5883 5885 5887 5888 5890 5892 5893 5894 5895 5896
5850 5849 5848 5848 5847 5847 5848 5848 5849 5850 5850 5851 5851 5852 5851 5851 5850 5849 5850 5849 5848 5849 5851 5854 5856 5859 5861 5863 5867 5870 5871 5872 5874 5877 5879 5882 5884 5885 5887 5888 5889 5890 5891
5847 5847 5846 5845 5845 5845 5846 5846 5846 5846 5846 5847 5846 5847 5847 5847 5847 5846 5847 5847 5847 5848 5849 5851 5853 5856 5859 5860 5862 5865 5867 5869 5870 5872 5875 5877 5878 5879 5881 5882 5884 5884 5885
5844 5842 5842 5843 5842 5842 5842 5842 5842 5843 5843 5842 5843 5843 5841 5841 5842 5842 5843 5844 5845 5845 5847 5848 5850 5852 5854 5856 5857 5858 5862 5863 5866 5867 5868 5869 5871 5872 5874 5876 5876 5876 5877
5840 5839 5838 5836 5835 5835 5835 5836 5837 5839 5839 5837 5836 5837 5837 5836 5836 5837 5838 5838 5839 5841 5843 5844 5846 5848 5849 5850 5852 5854 5856 5857 5859 5861 5862 5863 5864 5865 5866 5867 5867 5867 5867
5835 5832 5831 5831 5829 5827 5827 5828 5829 5829 5830 5831 5830 5829 5831 5831 5830 5830 5830 5831 5832 5834 5835 5838 5839 5841 5842 5843 5844 5845 5847 5849 5850 5852 5853 5855 5857 5857 5858 5859 5859 5859 5859
5828 5827 5823 5823 5821 5819 5818 5817 5818 5818 5814 5817 5821 5821 5823 5823 5823 5823 5824 5824 5824 5825 5827 5829 5830 5831 5833 5834 5835 5837 5838 5840 5842 5844 5845 5846 5848 5848 5848 5849 5849 5849 5848
5819 5819 5817 5814 5811 5810 5811 5807 5808 5807 5800 5801 5808 5811 5812 5815 5815 5816 5816 5818 5818 5819 5820 5821 5821 5822 5823 5824 5824 5824 5825 5828 5831 5834 5836 5837 5838 5838 5838 5838 5838 5838 5837
5802 5801 5784 5794 5799 5803 5800 5798 5797 5795 5789 5788 5790 5796 5799 5803 5806 5807 5808 5809 5809 5810 5810 5811 5812 5812 5813 5814 5814 5813 5813 5815 5818 5821 5823 5824 5825 5825 5825 5825 5825 5826 5826
5784 5776 5774 5785 5790 5792 5790 5789 5787 5785 5784 5783 5780 5780 5785 5789 5793 5795 5797 5799 5801 5801 5802 5802 5802 5803 5803 5803 5802 5803 5803 5804 5806 5808 5810 5811 5812 5811 5809 5809 5811 5812 5812
5768 5754 5755 5770 5777 5780 5779 5779 5780 5778 5778 5775 5773 5771 5775 5777 5782 5784 5785 5788 5790 5790 5791 5792 5792 5793 5792 5792 5793 5792 5792 5795 5796 5796 5797 5798 5798 5798 5798 5798 5798 5798 5796
5765 5765 5761 5765 5768 5772 5772 5771 5770 5769 5767 5767 5765 5769 5768 5768 5769 5770 5773 5778 5779 5779 5780 5782 5783 5783 5783 5783 5783 5783 5783 5783 5784 5784 5784 5785 5785 5785 5785 5785 5785 5784 5784
5751 5755 5756 5758 5760 5760 5761 5762 5761 5759 5757 5758 5756 5758 5760 5762 5762 5762 5765 5768 5769 5769 5770 5772 5772 5772 5773 5773 5773 5773 5773 5773 5773 5773 5773 5772 5772 5772 5773 5773 5773 5774 5774
5745 5747 5749 5750 5751 5751 5752 5752 5752 5750 5749 5749 5746 5745 5744 5743 5742 5750 5754 5756 5757 5758 5759 5761 5761 5760 5760 5761 5762 5762 5761 5761 5760 5762 5761 5763 5762 5761 5762 5762 5762 5762 5762
5739 5740 5741 5742 5743 5743 5742 5740 5739 5739 5739 5737 5730 5730 5724 5725 5724 5737 5739 5743 5745 5747 5749 5749 5748 5749 5748 5749 5749 5750 5750 5750 5749 5750 5749 5749 5750 5751 5752 5751 5750 5750 5749
5734 5733 5733 5733 5736 5735 5733 5733 5733 5731 5728 5726 5724 5721 5720 5713 5718 5722 5726 5729 5732 5734 5735 5736 5736 5736 5738 5739 5737 5737 5738 5737 5738 5738 5739 5738 5739 5738 5737 5738 5737 5737 5736
5725 5726 5727 5727 5726 5725 5726 5725 5724 5724 5722 5719 5717 5716 5714 5714 5715 5716 5713 5715 5719 5721 5722 5724 5724 5725 5725 5724 5725 5725 5725 5726 5725 5725 5725 5725 5724 5724 5723 5723 5723 5722 5722
5721 5719 5719 5720 5719 5719 5718 5716 5715 5714 5711 5709 5709 5710 5706 5707 5706 5706 5705 5704 5704 5704 5705 5707 5709 5710 5710 5710 5709 5710 5711 5711 5711 5712 5712 5711 5711 5711 5710 5709 5708 5708 5708
5711 5711 5710 5710 5709 5707 5707 5706 5706 5705 5703 5702 5702 5700 5700 5699 5697 5696 5696 5695 5695 5696 5697 5695 5695 5696 5696 5696 5696 5698 5698 5697 5698 5698 5697 5697 5696 5695 5695 5695 5694 5694 5693
5705 5705 5703 5702 5702 5700 5699 5697 5696 5696 5696 5695 5694 5692 5689 5686 5686 5685 5686 5686 5686 5685 5685 5685 5686 5686 5685 5685 5685 5684 5683 5683 5683 5683 5683 5682 5682 5681 5680 5680 5679 5678 5678
5699 5696 5694 5693 5691 5691 5689 5689 5687 5687 5685 5683 5682 5681 5680 5678 5677 5674 5674 5675 5674 5674 5674 5674 5675 5675 5672 5670 5671 5670 5669 5669 5668 5668 5667 5667 5666 5664 5664 5662 5662 5662 5661